Showing default

TELSTAR 11N, 34111

Orbit data source: Space-Track

TELSTAR 11N, 34111 is a payload satellite owned by Telesat/Skynet (CA) in GEO that was launched on Thu, 26 Feb 2009 UTC via a ZENIT-3SLB launch vehicle from the Tyuratam Missile And Space Complex (TTMTR). Payload-class satellites include a variety of spacecraft equipped with specific instruments for various scientific and technological missions. These include communications satellites like Starlink; space stations such as the ISS; scientific satellites like the Hubble; Earth observation satellites from companies like Planet Labs, Umbra, and HawkEye 360; GPS; miniature CubeSats for education and research; and military/defense satellites.

Not visible in the next 10 days
Identifier
34111, 2009-009A
Orbit
GEO
Country
Flag of CACA
Related business
Manufacturer
SS/Loral
Mission
Operational Commercial Communications
Bus & Motor
FS-1300, R-4D-11-164
Mass
4,010 kg wet, ~2,000 kg dry
Launch date (UTC)
2009-02-26 (17 years ago)
Launch vehicle
ZENIT-3SLB
Launch site
Tyuratam Missile And Space Complex (TTMTR)
Object type
Payload
Rocket body
Debris
Shape & HBR
Box + 2 Pan, 15.5 m
Radar Cross Section
40.765 m², Large (>1 m²)

Expand to show TLE details & history
Last TLE update: 10 hours ago

TLE from 10 hours ago
0 TELSTAR 11N
1 34111U 09009A   25353.25989181 -.00000226  00000-0  00000-0 0  9990
2 34111   0.0170  21.5868 0002244 237.1447 245.3961  1.00271118 44447
Epoch: 2025-12-19T06:14Z
TLE epoch observation values (Epoch: 2025-12-19T06:14:14.652Z)
Latitude
0.02853°
Longitude
-37.57163°
Altitude
35,790.243 km
Speed
3.074 km/s
True Right ascension
09h 36m 22s
True Declination
0° 01' 43"
Sunlit
Object was in daylight at epoch
Visualization orbit readout
Latitude
Unknown
Longitude
Unknown
Altitude
Unknown
Speed
Unknown
Apparent Right ascension
Unknown
Apparent Declination
Unknown
Sunlit
N/A
Visualization observer readout
Local Sidereal Time
15:10:43
Azimuth
Unknown
Elevation
Unknown
Doppler factor
Unknown
Orbital elements
Apogee altitude
35,797.314 km
Perigee altitude
35,778.39 km
Semi-major axis
42,165.989 km
Eccentricity
0.00022
Inclination
0.017°
RAAN
21.5868°
Arg. of periapsis
237.1447°
True anomaly
245.37272°
Mean anomaly
245.3961°
Eccentric anomaly
245.38441°
Mean motion
0.25067 °/min
Orbital period
1,436.16 mins
BSTAR
0
Loading maneuver chart data...
Computing Atmospheric mass density...
Loading historical data...
Loading historical data...
Loading historical data...
Loading historical data...
Loading historical data...
Loading historical data...
Loading historical data...
Other satellites on launch #9 in the year 2009 (2009-02-26 UTC)

Documentation

Showing up to 5 results
|